Location: 5810 Zion Rd, Cleves, OH 45002, USA
(39.1922°N, 84.7113°W)
Time: 21:42:46
(UTC-05:00)

Explorer 11/Cluster Stage 4 - All Passes

Search period start: 15 December 2019 00:00
Search period end: 25 December 2019 00:00
Orbit: 467 x 1259 km, 28.8° (Epoch: 15 December)

Date Brightness Start Highest point End Pass type
(mag) Time Alt. Az. Time Alt. Az. Time Alt. Az.
15 Dec - 06:19:58 10° SSE 06:22:04 11° SSE 06:24:08 10° SE visible
15 Dec - 08:04:02 10° SSW 08:10:21 25° SSE 08:16:12 10° ESE daylight
15 Dec - 09:51:59 10° WSW 09:58:53 35° S 10:04:51 10° ESE daylight
15 Dec - 11:41:10 10° WSW 11:47:13 30° SSW 11:52:20 10° SE daylight
15 Dec - 13:31:48 10° WSW 13:34:59 14° SSW 13:37:51 10° S daylight
16 Dec - 06:07:34 10° S 06:11:04 13° SSE 06:14:32 10° SE visible
16 Dec - 07:52:45 10° SW 07:59:24 28° SSE 08:05:37 10° ESE daylight
16 Dec - 09:40:53 10° WSW 09:47:59 36° S 09:54:12 10° ESE daylight
16 Dec - 11:30:10 10° WSW 11:36:23 30° SSW 11:41:38 10° SE daylight
16 Dec - 13:21:08 10° WSW 13:24:07 14° SSW 13:26:51 10° S daylight
17 Dec - 05:55:44 10° S 06:00:05 15° SSE 06:04:24 10° ESE visible
17 Dec - 07:41:32 10° SW 07:48:26 30° SSE 07:54:58 10° ESE daylight
17 Dec - 09:29:48 10° WSW 09:37:05 37° S 09:43:31 10° ESE daylight
17 Dec - 11:19:11 10° WSW 11:25:29 29° SSW 11:30:54 10° SE daylight
17 Dec - 13:10:34 10° SW 13:13:13 13° SSW 13:15:42 10° S daylight
18 Dec - 05:44:09 10° S 05:49:04 17° SSE 05:54:02 10° ESE visible
18 Dec - 07:30:23 10° SW 07:37:28 32° SSE 07:44:15 10° ESE daylight
18 Dec - 09:18:45 10° WSW 09:26:08 38° S 09:32:47 10° ESE daylight
18 Dec - 11:08:13 10° WSW 11:14:34 28° SSW 11:20:06 10° SE daylight
18 Dec - 13:00:10 10° SW 13:02:19 12° SSW 13:04:21 10° SSW daylight
19 Dec - 05:32:45 10° SSW 05:38:04 19° SSE 05:43:29 10° ESE visible
19 Dec - 07:19:17 10° SW 07:26:29 34° SSE 07:33:30 10° ESE visible
19 Dec - 09:07:45 10° WSW 09:15:11 39° S 09:22:01 10° ESE daylight
19 Dec - 10:57:17 10° WSW 11:03:39 27° SSW 11:09:15 10° SE daylight
19 Dec - 12:50:10 10° SW 12:51:23 10° SSW 12:52:33 10° SSW daylight
20 Dec - 05:21:28 10° SSW 05:27:02 21° SSE 05:32:51 10° ESE visible
20 Dec - 07:08:16 10° SW 07:15:30 36° S 07:22:42 10° ESE visible
20 Dec - 08:56:46 10° WSW 09:04:14 39° S 09:11:11 10° ESE daylight
20 Dec - 10:46:23 10° WSW 10:52:41 26° SSW 10:58:21 10° SSE daylight
21 Dec - 05:10:17 10° SSW 05:16:02 23° SSE 05:22:07 10° ESE visible
21 Dec - 06:57:16 10° SW 07:04:30 37° S 07:11:51 10° ESE visible
21 Dec - 08:45:49 10° WSW 08:53:16 38° S 09:00:20 10° ESE daylight
21 Dec - 10:35:31 10° WSW 10:41:42 24° SSW 10:47:22 10° SSE daylight
22 Dec - 04:59:12 10° SSW 05:05:02 25° SSE 05:11:19 10° ESE visible
22 Dec - 06:46:20 10° WSW 06:53:31 38° S 07:00:57 10° ESE visible
22 Dec - 08:34:54 10° WSW 08:42:17 37° S 08:49:25 10° SE daylight
22 Dec - 10:24:42 10° WSW 10:30:42 23° SSW 10:36:19 10° SSE daylight
23 Dec - 04:48:12 10° SSW 04:54:03 26° SSE 05:00:28 10° ESE visible
23 Dec - 06:35:27 10° WSW 06:42:33 39° S 06:50:01 10° ESE visible
23 Dec - 08:24:01 10° WSW 08:31:18 36° S 08:38:28 10° SE daylight
23 Dec - 10:13:57 10° WSW 10:19:42 21° SSW 10:25:10 10° SSE daylight
24 Dec - 02:53:31 10° SSE 02:55:16 11° SSE 02:57:06 10° SE visible
24 Dec - 04:37:16 10° SW 04:43:04 28° SSE 04:49:35 10° ESE visible
24 Dec - 06:24:36 10° WSW 06:31:34 39° S 06:39:03 10° ESE visible
24 Dec - 08:13:12 10° WSW 08:20:18 34° SSW 08:27:27 10° SE daylight
24 Dec - 10:03:17 10° WSW 10:08:42 19° SSW 10:13:55 10° SSE daylight
